Scarborough,

6:56 PM AST on September 20, 2017 (GMT -0400)
Scarborough

Weather History for TTCP - March, 2014

Change the Weather History Date:

Tuesday, March 11, 2014

  Actual Average Record
Temperature  
Mean Temperature 78 °F -  
Max Temperature 84 °F 84 °F 87 °F (2002)
Min Temperature 73 °F 74 °F 69 °F (2008)
Cooling Degree Days 14    
Growing Degree Days 28 (Base 50)    
Moisture  
Dew Point 68 °F    
Average Humidity 69    
Maximum Humidity 78    
Minimum Humidity 55    
Precipitation  
Precipitation 0.00 in - - ()
Sea Level Pressure  
Sea Level Pressure 29.92 in    
Wind  
Wind Speed 5 mph ()    
Max Wind Speed 15 mph    
Max Gust Speed -    
Visibility 6.1 miles    
Events      
Averages and records for this station are not official NWS values.
T = Trace of Precipitation, MM = Missing Value Source: Averaged Metar Reports

Daily Weather History Graph

Daily Weather History Graph

Search for Another Location

Airport or City:

Trip Planner

Search our weather history database for the weather conditions in past years. The results will help you decide how hot, cold, wet, or windy it might be!

Date:

Astronomy

Mar. 11, 2014 Rise Set
Actual Time 6:12 AM AST 6:13 PM AST
Civil Twilight 5:51 AM AST 6:35 PM AST
Nautical Twilight 5:27 AM AST 6:59 PM AST
Astronomical Twilight 5:02 AM AST 7:23 PM AST
Moon 2:21 PM AST (3/11) 2:25 AM AST (3/11)
Length of Visible Light 12h 43m
Length of Day
12h 01m
Waxing Gibbous, 78% of the Moon is Illuminated
Mar 11
Waxing Gibbous
Mar 16
Full
Mar 23
Last Quarter
Mar 30
New
Apr 7
First Quarter

Hourly Weather History & Observations

Time (AST) Temp. Heat Index Dew Point Humidity Pressure Visibility Wind Dir Wind Speed Gust Speed Precip Events Conditions
12:00 AM 75.2 °F - 66.2 °F 73% 29.92 in 6.2 mi Calm Calm - N/A   Partly Cloudy
1:00 AM 75.2 °F - 66.2 °F 73% 29.92 in - Calm Calm - N/A   Unknown
2:00 AM 75.2 °F - 66.2 °F 73% 29.89 in - Calm Calm - N/A   Clear
6:00 AM 73.4 °F - 66.2 °F 78% 29.89 in 6.2 mi Calm Calm - N/A   Partly Cloudy
7:00 AM 73.4 °F - 66.2 °F 78% 29.92 in 6.2 mi NNE 3.5 mph - N/A   Partly Cloudy
8:00 AM 78.8 °F - 71.6 °F 78% 29.95 in 6.2 mi East 5.8 mph - N/A   Partly Cloudy
9:00 AM 82.4 °F 85.4 °F 68.0 °F 62% 29.95 in 6.2 mi ESE 12.7 mph - N/A   Partly Cloudy
10:00 AM 84.2 °F 87.3 °F 68.0 °F 58% 29.98 in 6.2 mi ESE 13.8 mph - N/A   Partly Cloudy
11:00 AM 82.4 °F 85.4 °F 68.0 °F 62% 29.98 in 6.2 mi ESE 13.8 mph - N/A   Partly Cloudy
12:00 PM 82.4 °F 86.3 °F 69.8 °F 66% 29.95 in 5.0 mi ESE 15.0 mph - N/A   Partly Cloudy
1:00 PM 82.4 °F 85.4 °F 68.0 °F 62% 29.95 in 5.6 mi ESE 12.7 mph - N/A   Partly Cloudy
2:00 PM 84.2 °F 90.9 °F 73.4 °F 70% 29.92 in 6.2 mi ESE 6.9 mph - N/A   Partly Cloudy
3:00 PM 84.2 °F 87.3 °F 68.0 °F 58% 29.89 in 6.2 mi East 13.8 mph - N/A   Partly Cloudy
4:00 PM 84.2 °F 86.6 °F 66.2 °F 55% 29.86 in 6.2 mi ESE 12.7 mph - N/A   Partly Cloudy
5:00 PM 82.4 °F 85.4 °F 68.0 °F 62% 29.89 in 6.2 mi ESE 10.4 mph - N/A   Partly Cloudy
6:00 PM 78.8 °F - 68.0 °F 69% 29.89 in 6.2 mi East 10.4 mph - N/A   Partly Cloudy
7:00 PM 78.8 °F - 68.0 °F 69% 29.92 in 6.2 mi East 4.6 mph - N/A   Partly Cloudy
8:00 PM 77.0 °F - 68.0 °F 74% 29.92 in 6.2 mi Calm Calm - N/A   Partly Cloudy
9:00 PM 75.2 °F - 68.0 °F 78% 29.92 in 6.2 mi Calm Calm - N/A   Partly Cloudy
10:00 PM 75.2 °F - 68.0 °F 78% 29.95 in 6.2 mi Calm Calm - N/A   Partly Cloudy
11:00 PM 75.2 °F - 68.0 °F 78% 29.95 in 6.2 mi Calm Calm - N/A   Partly Cloudy